Location: Crescent
(42.8242°N, 73.7329°W)
Time: 12:48:11
(UTC+00:00)

Transit 4A - Pass Details

Date: 17 February 2026
Orbit: 863 x 978 km, 66.8° (Epoch: 17 March)

Event Time Altitude Azimuth Distance (km) Brightness Sun altitude
Rises 07:11:10 0° 160° (SSE) 3,437 - -49.3°
Reaches altitude 10° 07:14:33 10° 140° (SE) 2,518 - -48.9°
Maximum altitude 07:18:00 16° 103° (ESE) 2,121 - -48.4°
Exits shadow 07:21:17 11° 68° (ENE) 2,518 10.6 -47.9°
Drops below altitude 10° 07:21:30 10° 66° (ENE) 2,564 10.7 -47.9°
Sets 07:24:58 0° 47° (NE) 3,532 11.6 -47.4°
